Hourly Data Report for December 29, 2005

TORONTO CITY
ONTARIO

43°40'00.000" N
79°24'00.000" W
112.50 m
6158355
71508
XTO

Download Data

Hourly Data (December 2005)
Hourly Data Report for December 29, 2005
TIME
LST
Temp Definition
°C
Dew Point Definition
°C
Rel Hum Definition
%
Precip. Amount Definition
mm

Wind Dir Definition
10's deg

Wind Spd Definition
km/h
Visibility Definition
km
Stn Press Definition
kPa
Hmdx Definition


Wind Chill Definition


Weather Definition


00:00 2.5 2.1 97   LegendMM LegendMM   98.27     LegendNANA
01:00 2.5 2.2 98   LegendMM LegendMM   98.26     LegendNANA
02:00 2.6 2.3 98   LegendMM LegendMM   98.27     LegendNANA
03:00 2.7 2.3 97   LegendMM LegendMM   98.27     LegendNANA
04:00 2.5 2.1 97   LegendMM LegendMM   98.25     LegendNANA
05:00 2.5 2.0 96   LegendMM LegendMM   98.29     LegendNANA
06:00 2.5 1.9 96   LegendMM LegendMM   98.32     LegendNANA
07:00 2.4 1.7 95   LegendMM LegendMM   98.33     LegendNANA
08:00 2.5 1.7 94   LegendMM LegendMM   98.37     LegendNANA
09:00 2.6 1.7 94   LegendMM LegendMM   98.48     LegendNANA
10:00 2.5 1.7 94   LegendMM LegendMM   98.55     LegendNANA
11:00 2.2 1.4 94   LegendMM LegendMM   98.56     LegendNANA
12:00 1.9 1.0 94   LegendMM LegendMM   98.57     LegendNANA
13:00 1.3 0.5 94   LegendMM LegendMM   98.60     LegendNANA
14:00 1.1 0.5 96   LegendMM LegendMM   98.61     LegendNANA
15:00 1.1 0.0 92   LegendMM LegendMM   98.70     LegendNANA
16:00 1.0 -0.3 91   LegendMM LegendMM   98.81     LegendNANA
17:00 1.1 -0.7 88   LegendMM LegendMM   98.92     LegendNANA
18:00 1.2 -0.7 87   LegendMM LegendMM   99.00     LegendNANA
19:00 1.1 -1.0 86   LegendMM LegendMM   99.09     LegendNANA
20:00 1.0 -1.2 85   LegendMM LegendMM   99.18     LegendNANA
21:00 0.0 -1.5 90   LegendMM LegendMM   99.22     LegendNANA
22:00 -0.5 -2.6 86   LegendMM LegendMM   99.32     LegendNANA
23:00 -0.8 -2.8 86   LegendMM LegendMM   99.37     LegendNANA

Notes on Data Quality.

Legend

  • E = Estimated
  • M = Missing
  • NA = Not Available*
  • [empty] = Indicates an unobserved value
Date modified: